Weather History for Lee's Summit, MO

Change the Weather History Date:

Thursday, November 29, 2012

  Actual Average (KMKC) Record (KMKC)
Temperature  
Mean Temperature 50 °F -  
Max Temperature 62 °F 48 °F 72 °F (1998)
Min Temperature 39 °F 32 °F 24 °F (2003)
Degree Days  
Heating Degree Days 14    
Moisture  
Dew Point 34 °F    
Average Humidity 56    
Maximum Humidity 68    
Minimum Humidity 46    
Precipitation  
Precipitation 0.00 in - - ()
Sea Level Pressure  
Sea Level Pressure 30.07 in    
Wind  
Wind Speed 11 mph (SSW)    
Max Wind Speed 17 mph    
Max Gust Speed 24 mph    
Visibility 10 miles    
Events      
Averages and records for this station are not official NWS values.
T = Trace of Precipitation, MM = Missing Value Source: NWS Daily Summary

Daily Weather History Graph

Daily Weather History Graph

Search for Another Location

Airport:

Trip Planner

Search our weather history database for the weather conditions in past years. The results will help you decide how hot, cold, wet, or windy it might be!

Date:

Astronomy

Nov. 29, 2012 Rise Set
Actual Time 7:15 AM CST 4:56 PM CST
Civil Twilight 6:46 AM CST 5:25 PM CST
Nautical Twilight 6:13 AM CST 5:58 PM CST
Astronomical Twilight 5:41 AM CST 6:30 PM CST
Moon 5:59 PM CST (11/29) 8:03 AM CST (11/29)
Length of Visible Light 10h 39m
Length of Day
9h 40m
Full, 99% of the Moon is Illuminated
Nov 29
Full
Dec 6
Last Quarter
Dec 13
New
Dec 19
First Quarter
Dec 28
Full

Hourly Weather History & Observations

Time (CST) Temp. Windchill Dew Point Humidity Pressure Visibility Wind Dir Wind Speed Gust Speed Precip Events Conditions
12:53 AM 42.1 °F 37.1 °F 28.9 °F 60% 30.19 in 10.0 mi SSW 8.1 mph - N/A   Clear
1:53 AM 42.1 °F 36.1 °F 28.9 °F 60% 30.18 in 10.0 mi South 10.4 mph - N/A   Clear
2:53 AM 39.9 °F 33.9 °F 28.9 °F 65% 30.17 in 10.0 mi South 9.2 mph - N/A   Clear
3:53 AM 39.0 °F 32.8 °F 28.9 °F 67% 30.16 in 10.0 mi South 9.2 mph - N/A   Clear
4:53 AM 39.0 °F 33.4 °F 28.9 °F 67% 30.14 in 10.0 mi South 8.1 mph - N/A   Clear
5:53 AM 39.9 °F 33.4 °F 30.0 °F 68% 30.14 in 10.0 mi South 10.4 mph - N/A   Clear
6:53 AM 41.0 °F 33.9 °F 30.0 °F 65% 30.12 in 10.0 mi South 12.7 mph - N/A   Clear
7:53 AM 42.1 °F 34.5 °F 30.9 °F 65% 30.11 in 10.0 mi South 15.0 mph 23.0 mph N/A   Clear
8:53 AM 45.0 °F 37.6 °F 32.0 °F 60% 30.10 in 10.0 mi South 17.3 mph 24.2 mph N/A   Clear
9:53 AM 48.0 °F - 33.1 °F 56% 30.09 in 10.0 mi SSW 13.8 mph 20.7 mph N/A   Clear
10:53 AM 51.1 °F - 35.1 °F 54% 30.09 in 10.0 mi SSW 9.2 mph - N/A   Clear
11:53 AM 55.0 °F - 37.0 °F 51% 30.07 in 10.0 mi SW 15.0 mph - N/A   Clear
12:53 PM 57.0 °F - 37.9 °F 49% 30.05 in 10.0 mi WSW 11.5 mph - N/A   Clear
1:53 PM 60.1 °F - 39.0 °F 46% 30.01 in 10.0 mi SSW 15.0 mph - N/A   Clear
2:53 PM 61.0 °F - 41.0 °F 48% 29.99 in 10.0 mi SSW 13.8 mph 20.7 mph N/A   Clear
3:53 PM 62.1 °F - 41.0 °F 46% 29.99 in 10.0 mi SSW 11.5 mph - N/A   Clear
4:53 PM 60.1 °F - 41.0 °F 49% 29.99 in 10.0 mi SSW 8.1 mph - N/A   Clear
5:53 PM 57.0 °F - 39.0 °F 51% 29.99 in 10.0 mi South 8.1 mph - N/A   Clear
6:53 PM 55.0 °F - 35.1 °F 47% 30.01 in 10.0 mi South 8.1 mph - N/A   Clear
7:53 PM 55.0 °F - 35.1 °F 47% 30.00 in 10.0 mi SSW 10.4 mph - N/A   Clear
8:53 PM 55.0 °F - 35.1 °F 47% 30.01 in 10.0 mi SSW 15.0 mph 20.7 mph N/A   Clear
9:53 PM 52.0 °F - 35.1 °F 53% 30.02 in 10.0 mi SSW 10.4 mph - N/A   Clear
10:53 PM 51.1 °F - 35.1 °F 54% 30.02 in 10.0 mi SSW 11.5 mph - N/A   Clear
11:53 PM 48.9 °F - 35.1 °F 59% 30.04 in 10.0 mi SSW 8.1 mph - N/A   Clear